Location: Middelsbur
(53.6609°N, 7.5020°E)
Time: 00:29:38
(UTC+00:00)

YAOGAN 11 - Pass Details

Date: 06 July 2020
Orbit: 615 x 667 km, 98.3° (Epoch: 03 August)

Event Time Altitude Azimuth Distance (km) Brightness Sun altitude
Exits shadow 23:33:15 22° 173° (S) 1,382 5.2 -13.8°
Maximum altitude 23:36:02 75° 255° (WSW) 665 4.1 -13.8°
Drops below altitude 10° 23:40:31 10° 342° (NNW) 2,051 7.9 -13.8°
Sets 23:42:45 0° 344° (NNW) 2,974 9.1 -13.8°
